DECAYED

STARLINK-2268, 48030 (Decayed)

Orbit data source: Space-Track

STARLINK-2268, 48030 was a payload satellite owned by SpaceX/Seattle (US) in LEO that was launched on Wed, 24 Mar 2021 UTC via an FALCON 9 launch vehicle from the Air Force Eastern Test Range (AFETR). Payload-class satellites include a variety of spacecraft equipped with specific instruments for various scientific and technological missions. These include communications satellites like Starlink; space stations such as the ISS; scientific satellites like the Hubble; Earth observation satellites from companies like Planet Labs, Umbra, and HawkEye 360; GPS; miniature CubeSats for education and research; and military/defense satellites.

Not visible in the next 10 days
Identifier
48030, 2021-024BF
Orbit
Decayed
Country
Flag of USUS
Related business
Manufacturer
SpaceX/Seattle
Mission
Decayed Commercial Communications
Bus & Motor
STARLINK, Unknown motor
Mass
260 kg wet, ~248 kg dry
Launch date (UTC)
2021-03-24 (5 years ago)
Launch vehicle
FALCON 9
Launch site
Air Force Eastern Test Range (AFETR)
Object type
Payload
Rocket body
Debris
Shape & HBR
Box + 1 Pan, 10.1 m
Radar Cross Section
13.562 m², Large (>1 m²)

Expand to show TLE details & history
Last TLE update: 1 year ago

TLE from 1 year ago
0 STARLINK-2268
1 48030U 21024BF  25017.21836550  .42293374  12403-4  34396-2 0  9994
2 48030  53.0373  22.5143 0005318  35.0215  67.5118 16.39060027211587
Epoch: 2025-01-17T05:14Z
TLE epoch observation values (Epoch: 2025-01-17T05:14:26.779Z)
Latitude
51.40082°
Longitude
-62.58343°
Altitude
173.051 km
Speed
7.81 km/s
True Right ascension
08h 51m 39s
True Declination
51° 13' 05"
Sunlit
Object was in full shadow at epoch
Visualization orbit readout
Latitude
Unknown
Longitude
Unknown
Altitude
Unknown
Speed
Unknown
Apparent Right ascension
Unknown
Apparent Declination
Unknown
Sunlit
N/A
Visualization observer readout
Local Sidereal Time
21:28:26
Azimuth
Unknown
Elevation
Unknown
Doppler factor
Unknown
Orbital elements
Apogee altitude
172.075 km
Perigee altitude
165.111 km
Semi-major axis
6,546.73 km
Eccentricity
0.00053
Inclination
53.0373°
RAAN
22.5143°
Arg. of periapsis
35.0215°
True anomaly
67.56812°
Mean anomaly
67.5118°
Eccentric anomaly
67.53996°
Mean motion
4.09738 °/min
Orbital period
87.86 mins
BSTAR
0.0034396
Loading maneuver chart data...
Computing Atmospheric mass density...

Documentation

Showing up to 5 results
|